User: anonymous
Location: Fiddletown
(38.4917°N, 120.6633°W)
Time: 13:05:00
(UTC-07:00)
Language:

Envisat - Orbit

View from above orbital plane
View from above orbital plane
View from above satellite
View from above satellite

Ground track
Ground track

The orbit data is extracted from the following two-line orbital elements,

1 27386U 02009A   14241.44968012  .00000015  00000-0  19101-4 0  4024
2 27386 098.3766 304.9782 0001312 106.6575 015.2996 14.37727062654104
Epoch (UTC): 29 August 2014 10:47:32
Eccentricity: 0.0001312
inclination: 98.3766°
perigee height: 765 km
apogee height: 767 km
right ascension of ascending node: 304.9782°
argument of perigee: 106.6575°
revolutions per day: 14.37727062
mean anomaly at epoch: 15.2996°
orbit number at epoch: 65410

The dashed part of the orbit path shows where the satellite is in the earth's shadow,  

DLR